This demonstration page uses our WeatherBlox Daily Observations layout. Learn more.

Left ArrowRight Arrow

39.08367, -84.50855

Hourly Observations for November 9, 2015

Temp ( °F °C ) Dew Point ( °F °C ) Humidity (%) Winds ( mph kmh ) Pressure ( in mb ) Visibility ( mi km ) Precip ( " mm )
12:53 am 00:53 Clear 33 0.6 32 0 96 96 Calm 30.34 1027 10 16 0.00 0.00
1:53 am 01:53 Clear 31 -0.6 31 -0.6 100 100 Calm 30.33 1027 8 13 0.00 0.00
2:53 am 02:53 Clear with Mist and Fog 30 -1.1 29 -1.7 96 96 NNE 5 7 30.31 1027 6 10 0.00 0.00
3:53 am 03:53 Clear 30 -1.1 30 -1.1 100 100 E 3 6 30.29 1026 8 13 0.00 0.00
4:32 am 04:32 Clear with Mist and Fog 28 -2 28 -2 100 100 Calm 30.30 1026 2 3 0.00 0.00
4:43 am 04:43 Clear with Mist and Fog 29 -1.7 29 -1.7 100 100 Calm 30.33 1027 2 3 0.00 0.00
4:53 am 04:53 Clear with Mist and Fog 28 -2.2 28 -2.2 100 100 Calm 30.29 1026 4 6 0.00 0.00
5:53 am 05:53 Clear with Mist and Fog 29 -1.7 29 -1.7 100 100 Calm 30.31 1026 4 6 0.00 0.00
6:25 am 06:25 Clear with Mist and Fog 29 -1.7 29 -1.7 100 100 ENE 3 6 30.33 1027 2 3 0.00 0.00
6:44 am 06:44 Clear 28 -2 28 -2 100 100 NE 5 7 30.33 1027 10 16 0.00 0.00
6:53 am 06:53 Clear 30 -1.1 30 -1.1 100 100 NE 5 7 30.30 1026 10 16 0.00 0.00
7:53 am 07:53 Partly Cloudy 32 0 31 -0.6 96 96 NE 3 6 30.29 1026 10 16 0.00 0.00
8:53 am 08:53 Sunny 36 2.2 34 1.1 93 93 Calm 30.31 1026 10 16 0.00 0.00
9:53 am 09:53 Sunny 41 5 35 1.7 79 79 Calm 30.30 1026 10 16 0.00 0.00
10:53 am 10:53 Mostly Cloudy 47 8.3 34 1.1 61 61 Calm 30.30 1026 10 16 0.00 0.00
11:53 am 11:53 Mostly Cloudy 51 10.6 35 1.7 54 54 NNE 7 11 30.26 1025 10 16 0.00 0.00
12:53 pm 12:53 Cloudy with Light Rain 52 11.1 36 2.2 55 55 NNE 3 6 30.23 1024 10 16 0.00 0.03
1:53 pm 13:53 Mostly Cloudy 55 12.8 35 1.7 47 47 NNE 6 9 30.20 1023 10 16 0.00 0.03
2:53 pm 14:53 Mostly Cloudy 55 12.8 33 0.6 44 44 NE 5 7 30.18 1022 10 16 0.00 0.00
3:53 pm 15:53 Cloudy 55 12.8 36 2.2 49 49 NNE 7 11 30.16 1021 10 16 0.00 0.03
4:53 pm 16:53 Cloudy 54 12.2 37 2.8 53 53 N 5 7 30.16 1021 10 16 0.00 0.03
5:53 pm 17:53 Cloudy with Light Rain 53 11.7 36 2.2 52 52 NNE 5 7 30.15 1021 10 16 0.00 0.03
6:53 pm 18:53 Cloudy 52 11.1 37 2.8 57 57 N 8 13 30.14 1021 10 16 0.00 0.03
7:53 pm 19:53 Cloudy 52 11.1 38 3.3 59 59 N 5 7 30.14 1021 10 16 0.00 0.00
8:53 pm 20:53 Cloudy 52 11.1 38 3.3 59 59 Calm 30.12 1020 10 16 0.00 0.03
9:39 pm 21:39 Cloudy with Light Rain 49 9.4 43 6.1 80 80 Calm 30.12 1020 5 8 0.00 0.03
9:53 pm 21:53 Cloudy with Light Rain 48 8.9 45 7.2 89 89 NNW 5 7 30.13 1020 4 6 0.01 0.25
10:16 pm 22:16 Cloudy with Light Rain 46 8 45 7 93 93 WNW 5 7 30.12 1020 10 16 0.00 0.00
10:53 pm 22:53 Cloudy with Heavy Rain 47 8.3 45 7.2 93 93 N 3 6 30.12 1020 5 8 0.02 0.51
11:43 pm 23:43 Cloudy with Light Rain 47 8.3 46 7.8 97 97 NNW 9 15 30.09 1019 7 11 0.02 0.51
11:53 pm 23:53 Cloudy with Light Rain 47 8.3 46 7.8 97 97 NNW 8 13 30.09 1019 4 6 0.02 0.51

Powered by AerisWeather